Miscellaneous Local Product
Issued by NWS Hastings, NE

Home | Current Version | Previous Version | Text Only | Print | Product List | Glossary Off
Versions: 1 2 3 4 5 6 7 8 9 10 11 12 13 14 15 16 17 18 19 20 21 22 23 24 25 26 27 28 29 30 31 32 33 34 35 36 37 38 39 40 41 42 43 44 45 46 47 48 49 50

000
AXUS43 KGID 210702
MISGRI

GID CWA HOURLY WEATHER ROUNDUP
NATIONAL WEATHER SERVICE HASTINGS NE
200 AM CDT TUE APR 21 2015

NOTE: "FAIR" INDICATES FEW OR NO CLOUDS BELOW 12,000 FEET WITH NO
SIGNIFICANT WEATHER AND/OR OBSTRUCTIONS TO VISIBILITY.

...SOUTH CENTRAL NEBRASKA...

CITY           SKY/WX    TMP DP  RH WIND       PRES   REMARKS
GRAND ISLAND   CLOUDY    43  31  62 W9        29.88R
HASTINGS       CLOUDY    40  31  70 W5        29.88R
KEARNEY        PTCLDY    41  27  56 W6        29.89S
ORD            CLOUDY    43  29  57 W8        29.86R
YORK           CLOUDY    45  32  61 W7        29.86R
AURORA         CLOUDY    42  33  68 SW9       29.86S
LEXINGTON      CLEAR     33  30  88 NW5       29.90S WCI  29
HOLDREGE       CLEAR     35  28  78 CALM      29.90R
HEBRON         MOCLDY    38  30  71 W3        29.89R

...NEBRASKA PANHANDLE...

CITY           SKY/WX    TMP DP  RH WIND       PRES   REMARKS
CHADRON        CLEAR     25  21  85 W7        29.93S WCI  17
ALLIANCE       CLEAR     25  21  85 CALM      29.92R
SCOTTSBLUFF    CLEAR     34  27  75 N8        29.92S WCI  27
SIDNEY         CLEAR     32  27  81 NW12      29.92S WCI  23

...WESTERN AND NORTH CENTRAL NEBRASKA...

CITY           SKY/WX    TMP DP  RH WIND       PRES   REMARKS
VALENTINE      PTCLDY    36  25  64 NW6       29.88R WCI  31
AINSWORTH      MOCLDY    41  27  57 W7        29.87S
ONEILL         MOCLDY    41  24  51 W10       29.84R
BROKEN BOW     CLOUDY    41  28  60 VRB3      29.89R
IMPERIAL       CLEAR     36  27  69 W9        29.90S WCI  29
NORTH PLATTE   CLEAR     30  26  85 CALM      29.91S
MCCOOK         CLEAR     35  29  78 NW7       29.89S WCI  29

...EASTERN NEBRASKA...

CITY           SKY/WX    TMP DP  RH WIND       PRES   REMARKS
NORFOLK        MOCLDY    41  23  48 W10       29.81S
SO SIOUX CITY  PTCLDY    36  15  42 W8        29.78R WCI  30
TEKAMAH        CLOUDY    41  24  51 W13       29.79S
COLUMBUS       MOCLDY    39  25  56 W5        29.85R
ALBION         CLOUDY    41  23  49 W3        29.84R
OMAHA EPPLEY   CLOUDY    47  21  35 W10       29.79F
OFFUTT AFB     CLOUDY    40  28  62 NW7       29.80S
MILLARD        CLOUDY    45  25  44 NW3       29.81S
LINCOLN        MOCLDY    45  30  55 W6        29.85S
NEBRASKA CITY  MOCLDY    41  25  52 W9        29.83S
BEATRICE       CLOUDY    42  33  69 W5        29.86R
FALLS CITY     NOT AVBL

...NORTHERN KANSAS...

CITY           SKY/WX    TMP DP  RH WIND       PRES   REMARKS
GOODLAND       CLEAR     42  30  62 SW7       29.94S
HILL CITY      CLEAR     41  31  67 W6        29.90F
NORTON         SUNNY     36  27  69 SW7       29.89S WCI  30
PHILLIPSBURG   CLEAR     39  34  81 W5        29.90S
SMITH CENTER   CLEAR     36  27  69 CALM      29.90S
BELOIT         CLEAR     34  30  86 S3        29.89S
HAYS           PTCLDY    37  25  60 SW5       29.92S WCI  34
RUSSELL        PTCLDY    41  32  70 SW10      29.89F
CONCORDIA      PTCLDY    45  27  49 W6        29.89S
SALINA         MOCLDY    47  37  68 SW9       29.90S
TOPEKA         CLOUDY    46  33  60 W3        29.88F



USA.gov is the U.S. government's official web portal to all federal, state and local government web resources and services.